Probability
5 13 19 18 14 12 13 18 23 20 13 6 2 1 0 0 0 0 0 0 0 0 0 0 0 0 0 0 0 0 0 0 0 0 0 0 0 0 0 0 0 0 0
6 11 17 18 15 13 13 18 23 22 15 8 3 2 1 0 0 0 0 0 0 0 0 0 0 0 0 0 0 0 0 0 0 0 0 0 0 0 0 0 0 0 0
7 10 15 18 17 15 15 17 21 23 19 12 7 4 1 0 0 0 0 0 0 0 0 0 0 0 0 0 0 0 0 0 0 0 0 0 0 0 0 0 0 0 0
9 12 16 19 19 17 16 17 19 22 21 18 12 6 3 2 2 1 1 0 0 0 0 0 0 0 0 0 0 0 0 0 0 0 0 0 0 0 0 0 0 0 0
13 16 19 20 20 18 17 17 18 20 21 20 15 8 4 3 2 2 2 1 0 0 0 0 0 0 0 1 1 1 0 0 1 0 0 0 0 0 0 0 0 0 0
17 20 23 23 21 18 16 17 18 19 19 19 15 10 7 5 3 3 3 2 1 0 0 0 1 0 0 1 2 1 0 0 0 0 0 0 0 0 0 0 0 0 0
23 25 26 26 24 19 16 17 19 18 17 17 16 13 10 8 7 5 3 1 0 0 0 0 0 0 0 1 2 1 0 0 0 0 0 0 0 0 0 0 0 0 0
30 29 29 28 26 20 15 17 20 19 17 17 19 17 13 13 13 10 5 1 0 0 0 0 0 0 0 1 1 1 0 0 0 0 0 0 0 0 0 0 0 0 0
33 31 28 25 23 19 14 14 18 19 18 19 21 19 15 14 15 13 8 3 1 1 1 1 1 1 0 0 0 0 0 0 0 0 0 1 0 0 0 0 0 0 0
31 28 25 22 19 16 11 10 13 16 17 19 19 17 12 11 11 10 7 3 2 2 2 2 2 2 1 0 0 0 0 0 0 0 0 0 0 0 0 0 0 0 0
22 23 24 22 19 16 11 10 11 13 14 15 15 12 8 7 6 6 3 2 1 1 2 2 3 3 2 0 0 0 0 0 1 1 1 0 0 0 0 0 0 0 0
16 18 20 19 19 18 15 13 14 13 13 12 10 7 6 4 4 3 3 2 2 1 1 1 2 2 1 0 0 0 0 0 1 1 1 0 0 0 0 0 0 0 0
12 13 14 15 16 18 18 16 15 15 12 10 7 5 4 3 3 3 4 4 4 3 2 1 1 1 0 0 1 0 0 0 0 1 1 0 0 0 0 0 0 0 0
8 8 8 9 12 15 17 15 13 13 11 8 7 5 4 4 3 3 3 4 4 4 3 3 2 1 1 1 1 0 0 0 1 2 1 0 0 0 0 0 0 0 0
6 5 4 5 7 11 13 12 11 11 8 7 7 6 4 4 3 1 1 2 3 3 3 3 3 2 2 1 1 1 0 0 1 1 1 0 0 0 0 0 0 0 0
5 4 3 3 4 6 9 10 10 9 7 6 6 4 3 2 1 0 0 0 1 1 1 3 3 3 2 2 2 1 0 0 0 0 0 0 0 0 0 0 0 0 0
4 3 3 3 2 4 6 7 8 7 6 6 6 3 1 0 0 0 0 0 0 0 1 2 3 2 1 1 1 1 0 0 0 0 0 0 0 0 0 0 0 0 0
3 3 3 2 1 3 5 5 4 3 3 4 5 3 1 0 0 0 0 0 0 0 0 1 1 2 1 1 0 0 0 0 0 0 0 0 0 0 0 0 0 0 0
3 3 3 2 1 1 3 3 1 1 1 2 3 3 2 0 0 0 0 0 0 0 0 0 0 1 1 0 0 0 0 0 0 0 0 0 0 0 0 0 0 0 0
1 2 3 2 1 1 1 1 0 0 0 0 1 2 1 0 0 0 0 0 0 0 0 0 0 0 0 0 0 0 0 0 0 0 0 0 0 0 0 0 0 0 0
0 1 2 1 0 0 0 0 0 0 0 0 0 0 0 0 0 0 0 0 0 0 0 0 0 0 0 0 0 0 0 0 0 0 0 0 0 0 0 0 0 0 0
0 0 0 0 0 0 0 0 0 0 0 0 0 0 0 0 0 0 0 0 0 0 0 0 0 0 0 0 0 0 0 0 0 0 0 0 0 0 0 0 0 0 0
0 0 0 0 0 0 0 0 0 0 0 0 0 0 0 0 0 0 0 0 0 0 0 0 0 0 0 0 0 0 0 0 0 0 0 0 0 0 0 0 0 0 0
0 0 0 0 0 0 0 0 0 0 0 0 0 1 0 0 0 0 0 0 0 0 0 0 0 0 0 0 0 0 0 0 0 0 0 0 0 0 0 0 0 0 0
0 0 0 1 1 1 0 0 0 0 0 0 0 0 0 0 0 0 0 0 0 0 0 0 0 0 0 0 0 0 0 0 0 0 0 0 0 0 0 0 0 0 0
0 0 0 1 2 2 1 0 0 0 0 0 0 0 0 0 0 0 0 0 0 0 0 0 0 0 0 0 0 0 0 0 0 0 0 0 0 0 0 0 0 0 0
Wind_Speed
2 2 4 4 6 7 8 9 9 10 11 11 11 11 11 11 10 10 10 9 9 9 9 9 10 10 10 10 10 10 9 9 10 9 9 9 9 9 9 7 5 8 10
1 3 5 4 5 7 8 9 9 8 10 10 11 11 11 10 10 10 10 10 9 9 9 9 10 9 10 10 10 10 10 10 9 8 6 7 8 8 9 8 7 7 8
1 3 5 4 5 6 8 9 9 9 9 10 10 11 10 10 10 10 10 10 9 9 9 10 9 9 9 9 9 10 10 9 8 6 2 6 8 8 8 8 8 7 7
2 2 4 4 5 6 8 9 9 9 9 9 10 10 10 10 10 10 10 10 9 9 9 9 9 9 9 9 9 9 9 8 7 2 3 6 7 8 7 7 7 7 6
2 2 3 3 5 6 7 9 10 10 10 9 9 9 10 10 10 10 10 10 9 9 9 9 9 9 9 9 9 9 8 7 4 2 5 5 6 7 7 7 7 6 6
2 2 3 3 4 6 7 9 10 10 10 10 9 9 9 10 10 10 10 10 9 9 9 9 9 9 9 9 9 9 8 6 4 5 5 4 5 6 6 6 6 6 6
2 2 4 4 4 5 6 8 10 10 10 10 10 10 10 10 10 10 10 9 9 9 9 9 9 9 9 9 8 8 8 3 3 5 4 4 6 6 6 6 6 6 6
2 2 4 4 4 5 6 7 9 10 10 10 10 10 10 9 10 10 10 9 9 9 9 9 9 9 9 9 8 8 7 2 4 5 5 5 7 6 7 7 6 7 7
2 2 3 4 5 5 5 6 8 9 10 9 9 10 9 9 9 10 9 9 9 9 9 9 9 9 9 9 9 8 7 2 3 4 5 5 7 7 7 7 7 7 7
1 2 3 3 4 5 5 5 7 8 9 9 9 10 9 8 8 9 9 8 9 9 9 9 9 9 9 8 8 8 5 2 4 5 4 6 7 7 7 7 7 7 6
1 0 2 3 4 4 5 6 6 8 9 10 9 9 8 7 7 7 8 8 9 9 9 9 9 9 8 8 7 5 3 3 4 3 4 6 6 6 7 7 6 6 6
1 0 1 3 4 5 4 5 4 5 7 7 7 8 6 6 5 6 8 8 9 9 9 8 8 7 4 4 5 3 2 3 3 3 5 6 6 6 6 6 6 6 6
2 1 1 2 4 4 4 4 2 3 4 5 7 7 6 5 5 4 4 5 6 6 5 6 5 3 3 3 3 3 3 3 2 3 5 6 6 6 6 7 6 6 6
3 2 1 2 3 4 4 4 3 3 3 3 5 6 5 4 4 4 3 3 3 3 4 3 3 4 4 4 4 4 4 3 3 3 6 7 7 6 6 7 7 7 7
4 3 3 2 3 4 5 5 4 3 4 4 4 4 5 4 5 4 3 3 3 3 3 3 3 4 5 4 3 4 4 4 4 4 5 9 8 7 7 7 8 8 8
4 4 4 3 2 4 5 5 4 3 3 4 4 4 4 4 4 4 4 3 3 3 3 3 4 4 4 4 4 4 4 4 4 4 4 6 9 9 8 8 8 8 8
4 4 5 3 3 5 6 6 4 3 3 3 4 4 4 4 5 5 4 3 3 3 4 3 5 4 4 4 5 5 4 4 4 4 4 4 5 8 8 8 8 7 7
3 4 4 4 4 5 6 5 5 4 3 3 3 4 4 4 5 4 4 4 3 3 3 3 4 4 4 4 4 3 3 3 4 4 4 3 3 3 6 8 8 8 7
3 4 4 4 5 5 6 5 5 4 3 2 3 3 4 4 4 4 4 4 4 3 3 3 3 4 4 4 4 3 3 3 3 3 3 3 3 3 3 6 7 8 7
3 3 4 4 5 6 5 5 4 4 3 2 2 3 4 3 3 3 3 4 4 4 3 3 4 4 4 4 4 3 3 2 2 2 2 2 2 3 2 2 2 4 6
2 3 4 4 5 5 4 4 4 3 3 3 2 4 4 4 3 3 3 4 3 3 4 4 4 5 4 3 3 3 2 2 2 2 1 1 2 2 2 1 1 1 2
3 3 4 4 5 5 4 4 3 3 2 2 2 3 3 3 3 3 3 3 3 3 4 4 4 3 2 1 1 2 2 3 2 1 1 1 1 1 1 1 1 1 1
3 3 3 4 5 5 5 4 4 3 2 2 3 3 3 3 3 3 3 3 3 3 4 4 3 3 3 1 1 1 1 1 2 2 2 1 1 1 1 0 0 1 1
3 4 4 5 5 5 5 5 5 4 3 3 3 3 3 3 3 3 3 3 3 3 4 3 3 2 3 2 1 1 2 1 1 2 3 2 2 2 1 1 1 0 0
4 4 4 5 5 5 5 5 5 4 3 3 4 4 4 3 3 3 3 3 3 2 3 3 3 2 2 2 2 1 1 1 2 2 2 2 2 2 2 2 2 1 1
4 4 5 5 5 6 6 6 5 5 5 5 5 5 3 3 2 3 3 3 3 2 3 3 2 3 2 2 1 2 2 2 2 2 2 2 3 2 2 2 3 2 2
Wind_Direction
154 169 155 172 159 154 154 150 150 153 150 147 144 143 141 138 135 132 126 122 120 118 116 112 110 107 105 101 101 99 97 94 88 84 81 81 83 85 83 81 88 89 81
175 174 155 171 163 159 157 150 142 143 147 146 145 141 140 137 134 130 127 123 122 120 117 113 111 111 108 102 101 100 97 95 90 85 89 100 87 84 82 69 51 76 80
165 163 166 165 161 160 157 150 145 140 144 146 146 146 143 140 137 134 130 125 121 118 115 112 109 110 110 105 103 104 100 97 94 93 145 108 98 88 83 75 72 80 83
185 170 171 161 165 159 159 154 148 146 141 143 147 149 147 144 139 135 131 127 122 118 115 111 109 108 110 106 106 108 105 101 98 149 116 90 95 88 83 78 75 73 77
200 180 155 154 166 158 159 157 153 148 144 140 143 146 147 145 141 136 130 127 122 118 116 114 111 110 110 108 106 109 109 107 116 151 92 91 90 87 82 78 71 70 71
205 180 149 154 158 162 157 161 158 153 149 144 143 143 146 145 140 136 130 126 123 122 121 119 116 113 111 109 106 106 109 115 168 106 97 90 87 89 85 78 68 64 64
203 171 154 148 152 162 160 163 158 157 151 147 147 144 141 140 138 135 132 129 126 124 124 120 116 115 111 107 104 106 103 101 115 104 100 87 74 84 83 76 68 64 63
205 180 158 150 152 152 161 163 160 158 152 147 146 145 139 135 139 138 136 133 129 127 124 121 117 114 110 105 103 103 98 107 119 101 98 84 68 84 82 78 72 67 64
204 176 164 162 162 153 151 160 160 155 147 142 142 136 131 126 127 132 131 128 128 127 122 118 116 113 111 106 103 104 98 60 112 99 94 80 72 77 79 76 73 69 62
243 183 161 165 161 161 153 146 154 147 142 135 131 123 116 114 116 121 124 119 119 119 119 117 114 111 107 103 101 102 111 166 105 106 94 81 72 76 78 74 70 68 62
344 242 169 164 156 151 140 126 145 141 133 133 129 124 132 136 132 128 113 111 115 114 112 112 112 109 109 104 97 101 146 125 108 93 84 77 78 77 75 72 68 65 62
270 259 166 166 156 144 133 127 139 145 144 149 147 147 143 133 118 116 102 100 106 111 113 109 110 124 139 127 120 149 127 120 108 99 80 73 78 78 72 71 68 64 59
227 193 167 150 157 142 136 123 119 135 134 146 147 146 135 126 124 124 126 125 124 129 127 127 139 131 130 122 127 119 103 107 101 97 80 69 73 75 72 70 69 63 60
202 176 136 127 144 144 137 122 114 135 133 133 143 143 136 127 124 122 126 129 136 134 132 137 129 131 127 126 125 119 114 115 106 92 73 63 68 71 71 68 65 60 57
196 164 135 115 132 148 137 127 120 132 124 125 124 134 136 132 131 125 122 123 121 122 131 131 130 128 126 117 112 114 113 114 113 104 88 65 60 66 69 64 60 60 57
185 163 149 143 138 143 137 130 127 115 113 118 116 119 134 135 135 130 124 117 114 118 118 125 121 124 119 118 113 109 110 112 109 102 95 85 69 65 67 63 57 53 50
186 165 151 147 145 141 130 127 118 114 115 121 121 123 127 133 134 129 125 120 116 117 120 118 118 116 111 113 111 104 98 106 112 109 99 91 89 73 67 62 54 48 43
177 164 150 140 133 136 123 119 113 113 116 126 127 125 125 132 138 135 129 121 119 121 124 122 122 119 116 115 107 102 104 106 107 104 102 97 90 87 76 60 52 46 40
169 154 142 129 129 126 120 115 110 115 117 117 120 118 119 128 138 137 128 127 129 128 125 124 124 123 117 109 103 99 100 105 103 108 105 97 90 84 84 77 63 47 37
138 141 139 133 134 130 121 113 110 115 113 102 103 113 122 130 140 132 125 129 133 133 129 130 122 115 112 116 114 104 97 98 110 106 107 101 94 87 79 77 79 68 46
122 136 138 137 136 137 134 134 134 138 127 117 110 117 122 126 139 137 131 134 140 136 135 135 130 124 116 123 130 124 116 110 117 128 129 117 101 92 85 66 43 37 65
152 145 128 134 139 140 137 132 128 128 122 111 114 109 114 126 140 138 138 141 146 140 139 140 139 135 128 150 172 169 170 169 156 161 164 158 146 138 114 75 57 33 15
158 160 153 147 144 139 133 124 115 115 120 120 121 118 111 128 135 131 139 146 148 147 145 148 155 156 153 147 307 269 222 200 153 172 191 201 210 215 211 106 25 25 16
166 159 156 152 145 142 141 142 148 156 157 154 144 137 125 122 132 130 135 137 137 142 148 155 159 167 171 167 160 343 338 346 228 182 181 196 231 248 253 241 242 233 326
157 156 153 154 152 149 151 155 163 161 150 141 141 135 128 122 124 128 130 131 137 142 144 150 155 165 186 187 179 172 177 239 263 250 223 209 225 232 256 251 237 234 244
151 153 155 165 161 159 165 169 173 164 162 157 156 151 146 138 135 132 131 138 147 147 150 154 158 168 174 180 186 202 213 224 222 240 252 247 250 230 239 240 235 234 241